This is the latest recevied weather packets stored in our database for station/object VK5FR. If no packets are shown the sender has not sent any weather packets the latest 1 day(s).
| Time | Temp. | Humidity | Pressure | Rain* | Wind** | Luminosity | Snow |
|---|---|---|---|---|---|---|---|
| 1778052196 | 16.67° C | 78% | 1020.4 hPa | 0 mm | - | - | - |
| 1778051894 | 17.22° C | 76% | 1020.3 hPa | 0 mm | - | - | - |
| 1778051592 | 17.22° C | 72% | 1020.3 hPa | 0 mm | - | - | - |
| 1778051288 | 17.22° C | 72% | 1020.3 hPa | 0 mm | - | - | - |
| 1778050985 | 17.22° C | 72% | 1020.3 hPa | 0 mm | - | - | - |
| 1778050683 | 17.78° C | 70% | 1020.4 hPa | 0 mm | - | - | - |
| 1778049772 | 17.78° C | 67% | 1020.2 hPa | 0 mm | - | - | - |
| 1778049470 | 17.78° C | 67% | 1020.1 hPa | 0 mm | - | - | - |
| 1778049167 | 17.78° C | 66% | 1020.1 hPa | 0 mm | - | - | - |
| 1778047956 | 17.78° C | 69% | 1020.1 hPa | 0 mm | - | - | - |
| 1778047654 | 17.22° C | 71% | 1020.1 hPa | 0 mm | - | - | - |
| 1778047048 | 17.78° C | 72% | 1020 hPa | 0 mm | - | - | - |
| 1778046745 | 17.22° C | 73% | 1020 hPa | 0 mm | - | - | - |
| 1778046442 | 17.78° C | 72% | 1020 hPa | 0 mm | - | - | - |
| 1778046138 | 17.78° C | 72% | 1019.8 hPa | 0 mm | - | - | - |
| 1778045835 | 17.78° C | 73% | 1019.8 hPa | 0 mm | - | - | - |
| 1778045534 | 17.78° C | 73% | 1020.1 hPa | 0 mm | - | - | - |
| 1778044930 | 17.78° C | 74% | 1019.8 hPa | 0 mm | - | - | - |
| 1778043718 | 17.22° C | 77% | 1019.8 hPa | 0 mm | - | - | - |
| 1778043111 | 16.67° C | 80% | 1019.7 hPa | 0 mm | - | - | - |
| 1778042809 | 16.11° C | 80% | 1019.8 hPa | 0 mm | - | - | - |
| 1778042506 | 16.67° C | 80% | 1020 hPa | 0 mm | - | - | - |
| 1778042203 | 16.67° C | 79% | 1019.9 hPa | 0 mm | - | - | - |
| 1778041901 | 16.11° C | 80% | 1019.8 hPa | 0 mm | - | - | - |
| 1778041600 | 16.11° C | 83% | 1019.9 hPa | 0 mm | - | - | - |
* Rain latest hour (hover to see other rain measurements)
** Current wind speed in m/s (hover to see current wind gust speed)